Location: Clifton Park
(42.8656°N, 73.7710°W)
Time: 04:54:21
(UTC+00:00)

Daily predictions for brighter satellites

Satellite Brightness Start Highest point End
(mag) Time Altitude Azimuth Time Altitude Azimuth Time Altitude Azimuth
Meteor 2-4 Rocket 4.1 00:06:08 10° SSW 00:11:58 63° WNW 00:13:23 48° NNW
Cosmos 1943 Rocket 2.5 00:08:40 10° NNW 00:14:14 62° WSW 00:14:27 62° WSW
Lacrosse 5 3.0 00:15:04 10° SW 00:18:10 38° SW 00:18:10 38° SW
CZ-3B R/B 4.0 00:17:00 10° SSW 00:19:44 18° S 00:19:44 18° S
CZ-4C R/B 3.6 08:58:50 45° S 08:58:50 45° S 09:04:24 10° SSE
Cosmos 2263 Rocket 2.7 09:18:16 53° ENE 09:18:16 53° ENE 09:22:42 10° NNE
Cosmos 1634 Rocket 4.5 09:27:47 10° S 09:33:50 58° E 09:39:53 10° NNE
Cosmos 44 4.1 09:41:53 26° S 09:44:05 45° ESE 09:48:27 10° NE
FALCON 9 R/B 3.6 09:42:30 37° SW 09:45:21 54° S 10:06:38 10° E
Cosmos 1452 Rocket 3.4 09:45:24 81° S 09:45:40 88° ESE 09:51:00 10° NNE
USA 234 3.1 09:43:38 10° NE 09:50:12 84° NW 09:52:25 45° WSW
Cosmos 1850 Rocket 4.4 09:49:24 35° N 09:51:32 63° ENE 09:56:49 10° SSE
ALOS 3.4 09:51:18 10° NNE 09:55:46 43° E 10:00:12 10° S
Timation 1 Rocket 4.2 09:53:50 41° SW 09:56:02 78° WNW 10:02:03 10° NNE
COSMO-SKYMED 1 2.9 09:52:28 10° SSE 09:56:45 62° ENE 09:58:09 39° N
Cosmos 1092 Rocket 3.8 09:57:17 32° NNW 10:00:15 69° W 10:06:20 10° S
Meteor 1-18 Rocket 4.1 10:01:46 21° N 10:05:34 90° W 10:11:10 10° S
Cosmos 1943 3.2 10:07:04 53° W 10:07:47 57° WSW 10:13:15 10° S
STARLINK 1043 4.5 10:10:24 32° S 10:10:24 32° S 10:12:47 10° SSE
Cosmos 2221 Rocket 4.1 10:06:01 16° N 10:09:26 57° E 10:13:46 10° SSE
Cosmos 1340 2.6 10:06:04 10° S 10:09:49 81° E 10:13:36 10° NNE
Cosmos 1346 Rocket 2.7 10:08:28 10° S 10:12:20 78° E 10:16:13 10° NNE
STARLINK 1065 4.5 10:13:38 32° S 10:13:38 32° S 10:16:05 10° SSE
Helios 1A Rocket 4.3 10:11:26 10° NNE 10:15:14 39° E 10:19:01 10° S
STARLINK 1063 4.4 10:17:00 32° SSW 10:17:00 32° SSW 10:19:33 10° SSE
STARLINK 1064 4.4 10:20:12 31° SSW 10:20:12 31° SSW 10:22:49 10° SSE
SKYMED 3 4.4 10:16:31 10° S 10:20:51 72° WSW 10:22:32 36° NNW
Okean O Rocket 2.4 10:16:56 10° NNE 10:21:15 53° E 10:25:34 10° S
Orbus 7S? 2.9 10:22:38 59° SE 10:22:38 59° SE 10:25:01 10° NE
Cosmos 1869 Rocket 3.6 10:18:26 10° SSW 10:22:52 51° WNW 10:26:55 10° N
STARLINK 1041 4.4 10:23:29 30° SSW 10:23:29 30° SSW 10:26:10 10° SSE
Cosmos 1515 4.2 10:20:02 16° N 10:22:55 58° E 10:26:41 10° SSE
BREEZE-M DEB (TANK) 2.2 10:25:27 45° E 10:25:27 45° E 10:27:28 10° ESE
STARLINK 1038 4.5 10:26:47 29° SSW 10:26:47 29° SSW 10:29:33 10° SSE
GRACE-FO 1 4.5 10:23:07 10° S 10:26:49 81° W 10:29:44 16° N
GRACE-FO 2 4.5 10:23:31 10° S 10:27:13 80° W 10:30:08 16° N
Cosmos 1331 Rocket 4.3 10:23:20 10° S 10:28:25 67° ESE 10:33:34 10° NNE
MOS 1-B 4.2 10:25:10 10° NNE 10:30:57 76° WNW 10:36:42 10° SSW
PAYLOAD B 4.2 10:25:29 10° NNE 10:31:02 87° ESE 10:36:36 10° SSW
NOSS 3-2 (A) 4.3 10:31:21 10° SSW 10:36:47 50° ESE 10:42:53 10° NE
Geosat 4.0 10:35:12 10° SSE 10:40:11 66° WSW 10:43:42 20° NW
Okean 1-7 4.3 10:43:34 23° WSW 10:43:34 23° WSW 10:46:06 10° SW
Cosmos 1110 Rocket 3.9 10:38:21 10° SSW 10:43:33 81° WNW 10:48:45 10° NNE
Cosmos 2180 Rocket 4.4 10:37:43 10° S 10:43:51 84° W 10:50:04 10° N
CZ-4C R/B 4.5 10:44:05 15° WSW 10:44:05 15° WSW 10:48:09 10° SW
SKYMED 2 4.0 10:40:51 10° SSW 10:44:55 39° W 10:46:48 25° NW
PSLV R/B 4.3 10:45:37 21° SSW 10:45:37 21° SSW 10:47:32 10° SSE
USA 238 DEB 4.0 10:41:21 10° SSW 10:47:57 71° ESE 10:54:48 10° NE
USA 238 4.0 10:41:29 10° SSW 10:48:04 70° ESE 10:54:54 10° NE
Meteor 2-4 Rocket 3.5 10:45:08 10° NNW 10:50:37 78° W 10:55:58 10° S
CENTAUR R/B 4.4 10:48:25 10° S 10:53:30 32° ESE 10:59:16 10° NE
GEOS 3 Rocket 3.9 10:52:44 10° SSE 10:57:37 46° WSW 11:01:13 18° NW
Cosmos 1378 Rocket 4.3 10:54:00 10° N 10:58:21 54° E 11:02:42 10° SSE
SJ-7 4.2 10:56:41 10° N 11:00:41 79° WNW 11:04:39 10° SSW
Cosmos 2263 Rocket 3.3 11:00:03 19° WNW 11:01:35 22° NW 11:05:50 10° N
Cosmos 1666 3.9 10:59:51 10° SSE 11:03:30 45° E 11:07:07 10° NNE
ATLAS CENTAUR R/B 2.7 11:01:23 10° NNW 11:05:15 34° NE 11:08:50 10° ESE
Cosmos 2279 Rocket 4.2 11:01:06 10° SSW 11:06:59 45° WNW 11:12:57 10° N
Cosmos 332 Rocket 3.9 11:04:37 10° SW 11:09:27 57° WNW 11:14:18 10° NNE
CZ-4 R/B 4.4 11:09:52 10° NE 11:12:24 16° E 11:14:56 10° SE
ADEOS Rocket 3.5 11:06:00 10° SSE 11:12:52 71° ENE 11:19:03 10° N
FENGYUN 3A 4.2 11:13:58 10° N 11:18:49 36° WNW 11:23:39 10° SW
Okean 3 4.3 11:16:05 10° NNW 11:19:44 29° W 11:23:23 10° SSW
Cosmos 1833 Rocket 4.5 11:16:11 10° N 11:20:55 27° NE 11:25:38 10° ESE
SMAP 3.2 11:17:05 10° NNE 11:21:46 84° ESE 11:26:26 10° SSW
Cosmos 44 4.2 11:21:35 10° W 11:25:27 25° NW 11:29:12 10° N
Cosmos 1908 Rocket 3.6 11:22:18 10° S 11:26:47 90° ENE 11:31:16 10° N
Cosmos 1536 2.9 11:23:51 10° SSW 11:27:50 56° W 11:31:51 10° N
Cosmos 371 Rocket 4.0 11:25:45 10° WSW 11:30:01 30° WNW 11:34:20 10° N
IRIDIUM 106 4.3 11:26:59 10° N 11:32:12 74° W 11:37:24 10° S
USA 234 3.9 11:26:55 10° NE 11:32:42 35° NNW 11:38:29 10° W
Cosmos 1844 Rocket 2.9 11:27:23 10° SW 11:32:46 49° WNW 11:38:11 10° NNE
ALOS 3.4 11:29:24 10° NNW 11:32:53 21° WNW 11:36:22 10° WSW
COSMO-SKYMED 1 4.4 11:31:32 10° WSW 11:33:18 12° W 11:35:06 10° WNW
H-2A R/B 2.7 11:30:28 10° N 11:34:11 60° WNW 11:37:55 10° SSW
COSMOS 2406 3.7 11:30:49 10° NNW 11:36:29 63° ENE 11:42:05 10° SE
Cosmos 405 3.9 11:33:43 10° NNW 11:36:49 29° W 11:39:53 10° SSW
Cosmos 1844 3.8 11:31:21 10° SW 11:37:03 58° WNW 11:42:46 10° NNE
Cosmos 1743 3.9 11:33:47 10° SSE 11:37:26 47° E 11:41:07 10° NNE
Cosmos 1302 Rocket 4.1 11:33:32 10° SW 11:38:43 56° WNW 11:43:57 10° NNE
NOSS 3-2 (C) 3.5 11:33:00 10° SSW 11:38:44 87° ESE 11:45:14 10° NE
CZ-4B R/B 3.8 11:34:25 10° N 11:39:27 35° WNW 11:44:30 10° SW
ATLAS 3B R/B 3.5 11:33:29 10° SSW 11:40:02 56° ESE 11:46:31 10° NE
BREEZE-M DEB (TANK) 3.6 11:38:34 10° WNW 11:43:35 30° NNW 11:46:00 10° NE
Cosmos 2292 Rocket 4.3 11:40:40 10° NNW 11:47:02 57° W 11:51:46 10° SSW
Cosmos 1733 Rocket 4.2 11:44:38 10° WSW 11:47:56 21° WNW 11:51:16 10° NNW
Cosmos 968 Rocket 3.8 11:44:38 10° NNW 11:49:47 71° ENE 11:54:52 10° SSE
Helios 1A Rocket 4.3 11:47:23 10° NNW 11:50:07 18° WNW 11:52:50 10° WSW
